San Jose, CA

8:46 AM PDT on July 20, 2017 (GMT -0700)
San Jose International

Weather History for KSJC - March, 2013

Change the Weather History Date:

Monday, March 11, 2013

  Actual Average Record
Temperature  
Mean Temperature 55 °F 56 °F  
Max Temperature 70 °F 65 °F 87 °F (2005)
Min Temperature 40 °F 46 °F 27 °F (1897)
Degree Days  
Heating Degree Days 10 9  
Month to date heating degree days 119 105  
Since 1 July heating degree days 1725 1770  
Cooling Degree Days 0 0  
Month to date cooling degree days 0 0  
Year to date cooling degree days 0 0  
Growing Degree Days 6 (Base 50)    
Moisture  
Dew Point 42 °F    
Average Humidity 63    
Maximum Humidity 89    
Minimum Humidity 37    
Precipitation  
Precipitation 0.00 in 0.09 in 1.38 in (1967)
Month to date precipitation 0.66 1.08  
Year to date precipitation 1.72 7.26  
Since 1 July precipitation 8.91  
Sea Level Pressure  
Sea Level Pressure 30.20 in    
Wind  
Wind Speed 4 mph (West)    
Max Wind Speed 16 mph    
Max Gust Speed 18 mph    
Visibility 10 miles    
Events      
T = Trace of Precipitation, MM = Missing Value Source: NWS Daily Summary

Daily Weather History Graph

Daily Weather History Graph

Search for Another Location

Airport or City:

Trip Planner

Search our weather history database for the weather conditions in past years. The results will help you decide how hot, cold, wet, or windy it might be!

Date:

Astronomy

Mar. 11, 2013 Rise Set
Actual Time 7:24 AM PDT 7:11 PM PDT
Civil Twilight 6:58 AM PDT 7:37 PM PDT
Nautical Twilight 6:27 AM PDT 8:07 PM PDT
Astronomical Twilight 5:57 AM PDT 8:38 PM PDT
Moon 7:01 AM PDT (3/11) 7:28 PM PDT (3/11)
Length of Visible Light 12h 39m
Length of Day
11h 47m
Waning Crescent, 0% of the Moon is Illuminated
Mar 11
Waning Crescent
Mar 11
New
Mar 19
First Quarter
Mar 27
Full
Apr 2
Last Quarter

Hourly Weather History & Observations

Time (PDT) Temp. Windchill Dew Point Humidity Pressure Visibility Wind Dir Wind Speed Gust Speed Precip Events Conditions
12:53 AM 50.0 °F - 46.0 °F 86% 30.26 in 10.0 mi Calm Calm - N/A   Clear
1:53 AM 46.9 °F - 42.1 °F 83% 30.26 in 10.0 mi SE 3.5 mph - N/A   Clear
2:53 AM 46.4 °F 45.2 °F 41.0 °F 81% 30.27 in 10.0 mi ESE 3.5 mph - N/A   Clear
3:53 AM 45.0 °F - 37.9 °F 76% 30.25 in 10.0 mi Calm Calm - N/A   Clear
4:53 AM 45.0 °F - 37.9 °F 76% 30.25 in 10.0 mi Calm Calm - N/A   Clear
5:53 AM 44.1 °F - 37.0 °F 76% 30.25 in 10.0 mi Calm Calm - N/A   Clear
6:53 AM 45.0 °F - 37.0 °F 74% 30.25 in 10.0 mi Calm Calm - N/A   Clear
7:53 AM 44.1 °F 42.5 °F 37.0 °F 76% 30.25 in 10.0 mi SSE 3.5 mph - N/A   Clear
8:53 AM 48.0 °F - 39.9 °F 74% 30.26 in 10.0 mi Calm Calm - N/A   Clear
9:53 AM 52.0 °F - 42.1 °F 69% 30.26 in 10.0 mi Calm Calm - N/A   Clear
10:53 AM 55.9 °F - 42.1 °F 60% 30.25 in 10.0 mi Calm Calm - N/A   Clear
11:53 AM 61.0 °F - 42.1 °F 50% 30.23 in 10.0 mi Variable 3.5 mph - N/A   Clear
12:53 PM 63.0 °F - 43.0 °F 48% 30.22 in 10.0 mi WNW 4.6 mph - N/A   Clear
1:53 PM 66.0 °F - 39.9 °F 38% 30.18 in 10.0 mi Calm Calm - N/A   Clear
2:53 PM 69.1 °F - 43.0 °F 39% 30.15 in 10.0 mi NNW 6.9 mph - N/A   Clear
3:53 PM 69.8 °F - 42.8 °F 38% 30.14 in 10.0 mi WNW 12.7 mph - N/A   Clear
4:53 PM 68.0 °F - 46.9 °F 47% 30.13 in 10.0 mi WNW 13.8 mph - N/A   Clear
5:53 PM 64.9 °F - 45.0 °F 48% 30.12 in 10.0 mi WNW 12.7 mph - N/A   Clear
6:53 PM 62.1 °F - 43.0 °F 50% 30.12 in 10.0 mi WNW 5.8 mph - N/A   Clear
7:53 PM 59.0 °F - 42.1 °F 53% 30.12 in 10.0 mi West 3.5 mph - N/A   Clear
8:53 PM 57.0 °F - 44.1 °F 62% 30.12 in 10.0 mi SW 4.6 mph - N/A   Clear
9:53 PM 52.0 °F - 48.9 °F 89% 30.14 in 10.0 mi WNW 6.9 mph - N/A   Clear
10:53 PM 51.1 °F - 48.0 °F 89% 30.14 in 10.0 mi WNW 4.6 mph - N/A   Clear
11:53 PM 51.1 °F - 48.0 °F 89% 30.14 in 10.0 mi Calm Calm - N/A   Clear